SCP
0 0 0 0 0 0 0 0 0 0 0 0 0 0 0 0 1 1 1 1 1 1 1 1 2 2 2 2 1 1 1 1 1 1 1 1 1 1 1 1 1 1 1
0 0 0 0 0 0 0 0 0 0 0 0 0 0 0 0 1 1 1 1 1 1 1 1 2 2 2 2 2 2 2 1 1 1 1 1 1 1 1 1 1 1 1
0 0 0 0 0 0 0 0 0 0 0 0 0 0 0 0 0 0 0 0 1 1 1 1 2 2 2 2 2 2 2 2 2 2 2 1 1 1 1 1 1 1 1
0 0 0 0 0 0 0 0 0 0 0 0 0 0 0 0 0 0 0 0 0 0 1 1 1 1 2 2 2 2 2 2 2 2 2 1 1 1 1 1 1 1 1
0 0 0 0 0 0 0 0 0 0 0 0 0 0 1 0 0 0 0 0 0 0 1 1 1 1 1 1 1 2 2 2 2 2 2 1 1 1 1 1 1 1 1
0 0 0 0 0 0 0 0 0 0 0 0 0 0 0 0 0 0 0 0 0 0 0 1 1 1 1 1 1 1 1 1 1 1 1 1 1 1 1 1 1 1 1
1 1 0 0 0 0 0 0 0 0 0 0 0 0 0 0 0 0 0 0 0 0 0 0 1 1 1 1 1 1 1 1 1 1 1 1 1 1 1 1 1 1 1
1 1 1 0 0 0 0 0 0 0 0 0 0 0 0 0 0 0 0 0 0 0 0 0 1 1 1 1 1 1 1 1 1 1 1 1 1 1 1 1 1 1 1
1 1 1 0 0 0 0 0 0 0 0 0 0 0 0 0 0 1 0 0 0 1 1 1 1 1 1 1 1 1 1 1 1 1 1 1 1 1 1 1 1 1 1
1 1 1 0 0 0 0 0 0 0 1 1 1 1 1 1 1 1 1 1 1 1 1 1 1 1 1 1 1 1 1 1 1 1 1 1 1 1 1 1 1 1 1
1 1 0 0 0 0 0 0 1 1 1 1 1 1 1 1 1 1 1 1 1 1 1 1 0 0 0 0 0 1 1 1 1 1 1 2 2 2 2 1 1 1 1
1 1 1 1 0 0 1 1 1 1 1 1 1 1 1 1 2 2 2 1 1 1 1 1 0 0 0 0 0 0 1 1 1 1 1 1 1 2 2 1 1 1 1
1 1 1 1 1 1 1 1 1 1 1 1 1 1 1 1 2 2 2 2 1 1 1 1 0 0 0 0 0 0 0 1 1 1 1 1 1 1 1 1 1 1 1
1 1 1 1 1 1 1 1 1 1 1 1 1 1 1 1 1 2 2 2 1 1 1 1 1 1 0 0 0 0 0 0 0 0 0 1 1 1 1 1 1 1 1
1 1 1 1 1 1 0 0 1 1 1 1 1 0 1 1 1 1 2 2 2 2 1 1 1 1 1 1 0 0 0 0 0 0 0 0 0 0 0 0 0 1 1
2 2 2 2 1 1 0 0 1 1 1 0 0 0 1 1 1 1 2 2 2 2 2 2 2 1 1 1 1 1 1 1 0 0 0 0 0 0 0 0 0 0 0
2 2 2 2 2 1 1 1 1 0 0 0 0 1 1 1 1 1 1 2 2 2 2 2 2 2 2 1 1 1 1 1 1 0 0 0 0 0 0 0 0 0 0
2 2 3 3 3 3 2 1 1 1 1 1 1 1 1 1 1 1 1 1 2 2 2 2 2 2 2 2 1 1 1 1 0 0 0 0 0 0 0 0 0 0 0
1 2 3 3 4 4 4 3 2 1 1 1 1 1 1 1 1 1 1 1 1 1 1 1 2 2 2 2 2 1 1 1 0 0 0 0 0 0 0 0 0 0 0
1 1 2 2 3 4 4 4 3 2 2 2 2 2 1 1 1 1 1 2 2 2 2 2 2 2 2 2 2 2 1 1 1 0 0 0 0 0 0 0 0 0 0
1 1 1 1 1 2 2 3 3 3 2 2 2 2 2 1 1 1 1 2 2 2 3 3 3 3 3 2 2 2 2 2 1 1 1 0 0 0 0 0 0 0 0
2 2 2 2 1 1 1 2 2 2 2 2 3 3 3 2 2 2 2 2 2 2 3 4 4 3 3 3 3 2 2 2 2 1 1 1 1 1 0 0 0 0 0
3 3 2 2 2 1 1 1 2 2 2 2 3 3 3 3 3 2 2 2 2 2 3 4 4 4 4 4 4 3 2 2 2 2 1 2 2 2 1 1 0 0 0
4 3 3 2 2 2 1 1 1 2 2 2 3 3 3 3 3 3 3 3 3 3 3 3 4 4 4 4 4 3 3 3 2 2 2 2 3 3 2 2 1 0 0
4 4 4 3 3 2 2 2 2 2 3 3 3 3 3 3 3 2 3 3 4 3 3 3 3 3 3 3 3 3 4 4 4 4 3 3 3 3 3 2 1 0 0
3 4 4 3 3 3 2 2 2 3 4 4 4 4 3 3 2 2 2 3 3 3 3 2 2 2 2 2 2 3 4 5 5 5 4 3 3 3 3 3 2 1 0
Wind_Speed
1 1 1 1 1 1 1 1 1 1 1 1 0 1 1 1 1 1 1 3 4 4 5 5 5 5 5 5 6 6 6 7 6 6 6 7 7 7 8 9 9 8 8
1 1 1 1 1 1 1 1 1 0 0 0 1 0 1 1 1 1 1 2 3 3 4 5 5 5 5 6 6 6 6 6 6 6 6 6 7 7 7 8 9 9 8
1 1 1 1 1 1 1 1 1 1 1 1 1 1 0 0 1 1 1 1 1 2 2 3 3 4 5 5 5 5 5 5 5 6 6 6 6 7 7 7 8 8 8
1 1 1 0 1 1 1 1 1 1 1 1 1 1 1 0 1 1 1 1 1 1 2 3 3 3 4 5 5 5 5 4 4 5 6 6 6 7 7 8 7 7 7
1 2 1 0 1 1 1 1 1 1 1 1 1 1 1 1 1 1 0 1 1 1 2 3 4 4 5 5 5 5 4 4 4 5 5 6 6 6 7 8 7 7 7
1 1 1 0 1 1 1 1 1 1 1 1 1 2 1 1 1 1 1 1 1 1 2 2 2 3 4 4 4 4 4 4 4 5 5 5 5 5 6 7 7 7 7
1 1 1 1 1 1 1 1 1 1 1 1 2 2 2 2 1 1 1 1 1 2 1 2 2 2 2 3 3 4 4 4 3 4 4 4 5 5 6 7 8 8 7
2 2 2 1 1 1 1 1 1 1 0 0 1 1 2 2 2 1 1 1 1 1 1 2 2 2 2 1 2 3 3 3 3 3 3 3 3 4 6 7 7 7 7
2 2 2 2 1 1 1 1 1 2 1 0 1 2 1 1 2 2 1 1 1 1 2 1 1 2 2 1 2 2 2 2 2 2 2 2 3 4 4 6 6 7 7
1 1 2 2 1 1 1 2 2 1 2 1 0 1 1 2 1 1 2 1 2 2 2 2 1 2 1 1 1 1 2 2 2 2 2 2 3 4 5 5 6 6 6
1 1 2 2 1 1 1 1 1 2 2 2 1 1 1 0 1 1 2 2 2 2 2 2 1 1 1 1 1 1 1 1 1 2 2 2 2 3 4 6 6 6 6
1 1 1 1 1 1 2 2 2 2 2 2 1 1 1 1 2 2 2 2 2 2 2 1 1 1 1 1 1 0 1 0 1 1 1 1 2 2 3 4 5 5 5
1 2 1 1 1 2 2 2 1 1 2 2 2 1 2 2 1 2 2 1 2 2 2 1 1 1 1 0 0 1 1 2 2 1 1 1 2 1 2 2 3 4 5
2 2 1 2 2 2 2 1 1 1 1 1 2 1 1 2 2 2 2 1 1 1 1 2 1 1 1 1 1 1 0 1 1 1 1 1 1 1 2 2 2 2 3
2 2 2 2 2 2 2 1 1 1 1 1 1 2 1 1 2 2 2 2 2 2 3 1 1 1 1 0 0 0 1 1 1 1 1 1 1 1 1 1 1 2 2
2 2 2 2 2 2 1 1 1 1 1 2 1 1 2 2 2 2 2 2 2 2 2 1 1 1 1 1 0 1 1 1 1 1 1 1 1 1 1 1 2 2 2
3 2 2 2 2 2 2 1 2 1 2 2 2 2 3 2 2 1 1 2 2 2 2 1 0 1 1 1 1 1 0 0 0 0 1 1 1 1 0 0 1 2 2
3 3 2 2 2 2 2 2 2 2 2 2 3 2 3 2 2 1 1 2 2 2 2 2 1 0 0 1 1 1 1 1 0 0 1 1 1 0 0 0 1 1 2
3 2 2 2 2 2 2 2 2 2 2 3 2 2 2 1 2 1 1 1 1 1 2 2 1 0 0 0 1 1 1 1 1 1 1 1 1 2 2 1 2 2 2
3 3 2 3 2 2 2 2 2 2 2 2 2 2 2 2 2 2 2 2 1 1 2 2 1 1 1 0 1 0 1 1 1 1 1 2 2 2 3 3 3 3 3
3 3 3 2 2 2 2 2 2 2 2 2 1 1 2 2 2 2 2 2 2 2 2 2 1 1 1 1 2 1 2 1 2 1 1 1 2 2 2 3 4 4 3
3 3 3 3 2 2 2 3 2 2 2 2 2 2 2 1 2 2 2 3 4 3 3 3 2 2 3 3 2 2 2 1 2 1 1 2 1 2 3 3 3 4 4
3 3 2 2 3 2 2 3 3 2 2 2 2 2 2 1 1 1 2 2 3 4 5 4 4 4 4 3 3 3 3 3 3 1 2 3 2 3 3 3 4 4 5
3 3 3 3 2 3 3 3 3 2 2 2 2 2 2 2 1 1 2 1 2 3 4 4 4 4 3 3 3 3 3 2 2 1 2 3 2 3 3 3 4 6 6
2 2 2 2 2 3 3 3 3 1 1 2 2 2 2 2 2 2 2 2 3 3 2 2 3 2 2 2 3 2 1 1 2 2 3 3 2 2 2 3 3 5 6
3 2 2 2 3 3 2 3 3 1 2 2 2 2 2 3 3 2 3 3 3 4 2 2 1 1 1 2 3 3 3 3 2 2 3 3 2 1 2 2 2 2 3
Wind_Direction
62 53 49 50 49 57 77 79 70 52 53 53 108 140 174 194 212 220 233 227 224 224 227 230 230 228 228 232 231 235 238 234 227 223 223 221 218 219 218 217 215 212 212
99 90 71 50 37 37 54 104 134 98 29 53 52 106 203 205 213 223 236 251 244 229 228 235 233 236 237 235 233 227 230 232 225 221 224 224 223 223 223 222 219 215 212
118 109 93 46 9 36 65 75 75 72 63 56 45 24 337 266 217 219 221 238 267 252 240 238 237 242 246 243 236 228 227 232 226 226 227 226 224 221 221 221 219 213 208
127 112 95 23 5 53 69 77 70 76 60 55 36 6 5 349 269 231 227 239 260 273 272 263 257 258 253 245 242 238 232 230 227 230 231 228 228 224 217 214 209 204 203
133 129 124 25 50 65 54 72 65 92 105 85 58 24 8 352 318 272 271 264 259 266 272 280 273 268 264 253 250 242 235 229 227 232 233 228 228 223 212 206 203 203 202
149 133 133 79 67 78 52 64 76 60 84 67 65 35 3 349 359 348 274 272 272 262 261 271 280 279 276 268 266 258 241 236 234 233 237 232 225 221 211 204 201 201 198
161 151 145 118 107 115 115 102 91 75 56 72 65 18 358 3 6 344 316 306 298 278 271 270 264 266 276 276 277 274 259 246 239 236 235 230 228 218 211 200 199 201 200
191 186 172 171 163 134 104 106 115 115 128 96 103 71 347 340 348 4 2 342 309 295 282 282 277 265 262 265 277 279 280 254 245 241 232 227 219 206 201 196 195 199 200
209 190 177 176 172 166 196 215 178 167 189 239 145 146 154 261 311 335 348 360 340 317 300 297 282 277 257 255 268 276 286 273 262 239 217 198 175 174 182 186 185 188 189
231 202 184 184 189 189 211 228 193 181 170 215 223 183 191 184 202 307 331 339 321 315 305 307 301 289 276 262 259 274 292 274 265 254 231 203 179 178 186 184 184 182 179
286 240 198 184 197 211 222 231 211 192 184 193 194 187 171 151 197 205 284 314 334 318 303 300 298 293 293 287 273 256 286 271 252 243 233 207 187 193 194 191 189 185 184
284 271 218 197 206 219 228 230 219 201 198 197 192 190 190 191 203 194 236 283 303 309 318 318 313 300 286 285 286 0 20 39 219 225 223 193 172 185 188 186 188 189 190
248 255 226 205 213 228 233 220 206 219 206 199 205 212 217 225 196 181 194 254 284 298 310 319 307 302 299 337 325 9 46 64 93 119 133 151 161 169 177 177 190 196 197
235 241 218 214 217 225 234 210 208 226 207 208 219 215 226 236 209 196 191 195 277 294 294 295 319 309 322 344 7 12 62 79 94 99 128 135 134 154 182 184 187 201 202
224 224 225 227 228 227 226 198 205 229 206 212 222 220 228 241 225 223 215 207 206 268 288 287 295 312 273 269 344 249 222 124 138 141 141 132 132 134 161 175 184 195 194
224 218 227 231 228 227 218 195 217 230 208 229 228 235 242 243 236 226 222 224 219 221 253 275 263 314 328 329 39 278 251 207 219 189 166 156 154 156 178 193 202 200 192
219 227 227 224 226 228 218 205 233 237 230 253 257 248 259 253 242 236 217 210 210 193 225 276 294 342 330 319 340 340 322 289 294 181 161 154 161 155 161 197 213 202 206
219 221 218 217 228 232 217 213 234 243 240 251 258 258 269 266 258 249 222 218 218 207 199 240 283 347 305 306 330 344 358 3 311 322 197 188 189 192 111 110 250 237 226
209 206 198 216 231 235 226 221 221 232 241 248 249 250 261 255 266 266 242 223 218 204 190 192 234 257 267 56 27 350 349 327 297 315 257 232 233 251 249 237 238 238 230
202 203 206 221 231 233 227 222 224 236 247 250 245 241 242 234 242 238 232 224 206 181 170 176 202 233 241 174 164 252 302 289 280 282 283 264 239 239 243 244 244 239 224
212 205 202 221 231 229 235 230 227 228 232 246 251 247 240 240 236 224 211 202 190 184 177 187 212 225 230 209 216 210 232 268 261 250 264 271 256 252 248 247 243 237 215
204 196 203 211 228 245 244 216 199 215 216 230 245 261 253 253 266 234 219 204 189 186 197 203 218 228 243 234 221 210 209 228 257 232 238 271 246 255 253 244 247 231 217
199 196 208 207 227 243 216 199 189 193 205 225 230 249 270 276 241 252 246 232 221 212 202 204 215 228 228 220 205 213 218 225 242 225 212 260 255 261 260 246 229 227 225
193 198 212 217 224 238 207 195 191 200 221 240 236 227 232 265 263 236 238 257 257 246 233 219 224 234 233 217 205 212 218 219 240 230 201 243 254 260 266 252 232 225 226
195 199 206 214 223 249 220 205 192 208 246 265 256 238 227 248 264 227 220 250 274 278 264 234 237 251 236 194 167 159 188 226 257 241 203 227 247 263 265 255 246 228 228
188 192 209 219 221 245 243 215 195 207 246 267 273 264 250 250 260 236 229 237 258 270 278 278 273 282 245 206 181 196 204 220 250 251 200 205 220 221 262 252 264 247 232